Weather History for Mather AFB, CA

Change the Weather History Date:

Tuesday, March 20, 2012

  Actual Average Record
Temperature  
Mean Temperature 53 °F -  
Max Temperature 62 °F 66 °F 82 °F (2004)
Min Temperature 44 °F 42 °F 37 °F (2008)
Degree Days  
Heating Degree Days 12    
Growing Degree Days 3 (Base 50)    
Moisture  
Dew Point 39 °F    
Average Humidity 62    
Maximum Humidity 87    
Minimum Humidity 39    
Precipitation  
Precipitation 0.00 in - - ()
Sea Level Pressure  
Sea Level Pressure 30.17 in    
Wind  
Wind Speed 3 mph (ENE)    
Max Wind Speed 7 mph    
Max Gust Speed -    
Visibility 10 miles    
Events      
Averages and records for this station are not official NWS values.
T = Trace of Precipitation, MM = Missing Value Source: NWS Daily Summary

Daily Weather History Graph

Daily Weather History Graph

Search for Another Location

Airport:

Trip Planner

Search our weather history database for the weather conditions in past years. The results will help you decide how hot, cold, wet, or windy it might be!

Date:

Astronomy

Mar. 20, 2012 Rise Set
Actual Time 7:07 AM PDT 7:17 PM PDT
Civil Twilight 6:41 AM PDT 7:44 PM PDT
Nautical Twilight 6:10 AM PDT 8:15 PM PDT
Astronomical Twilight 5:38 AM PDT 8:46 PM PDT
Moon 5:51 AM PDT (3/20) 5:51 PM PDT (3/20)
Length of Visible Light 13h 02m
Length of Day
12h 09m
Waning Crescent, 3% of the Moon is Illuminated
Mar 20
Waning Crescent
Mar 22
New
Mar 30
First Quarter
Apr 6
Full
Apr 13
Last Quarter

Hourly Weather History & Observations

Time (PDT) Temp. Windchill Dew Point Humidity Pressure Visibility Wind Dir Wind Speed Gust Speed Precip Events Conditions
12:55 AM 44.6 °F - 39.2 °F 81% 30.12 in 10.0 mi Calm Calm - N/A   Overcast
1:55 AM 44.6 °F 42.2 °F 39.2 °F 81% 30.13 in 10.0 mi ESE 4.6 mph - N/A   Overcast
2:55 AM 44.6 °F 42.2 °F 39.2 °F 81% 30.13 in 10.0 mi East 4.6 mph - N/A   Overcast
3:55 AM 44.6 °F 43.1 °F 39.2 °F 81% 30.13 in 10.0 mi East 3.5 mph - N/A   Overcast
4:50 AM 44.6 °F 43.1 °F 39.2 °F 81% 30.13 in 10.0 mi East 3.5 mph - N/A   Overcast
5:45 AM 44.6 °F - 39.2 °F 81% 30.15 in 10.0 mi Calm Calm - N/A   Overcast
6:45 AM 44.6 °F - 41.0 °F 87% 30.16 in 10.0 mi Calm Calm - N/A   Overcast
8:45 AM 48.2 °F - 39.2 °F 71% 30.20 in 10.0 mi SE 3.5 mph - N/A   Overcast
9:45 AM 50.0 °F - 37.4 °F 62% 30.20 in 10.0 mi South 5.8 mph - N/A   Overcast
10:54 AM 51.8 °F - 35.6 °F 54% 30.22 in 10.0 mi Calm Calm - N/A   Overcast
11:47 AM 53.6 °F - 35.6 °F 51% 30.22 in 10.0 mi Calm Calm - N/A   Overcast
12:47 PM 55.4 °F - 32.0 °F 41% 30.22 in 10.0 mi Calm Calm - N/A   Mostly Cloudy
1:47 PM 59.0 °F - 35.6 °F 42% 30.19 in 10.0 mi NNE 6.9 mph - N/A   Mostly Cloudy
2:46 PM 59.0 °F - 35.6 °F 42% 30.18 in 10.0 mi NW 4.6 mph - N/A   Scattered Clouds
3:46 PM 59.0 °F - 35.6 °F 42% 30.17 in 10.0 mi Calm Calm - N/A   Mostly Cloudy
4:46 PM 60.8 °F - 37.4 °F 42% 30.16 in 10.0 mi Calm Calm - N/A   Mostly Cloudy
5:46 PM 62.6 °F - 37.4 °F 39% 30.15 in 10.0 mi SSW 3.5 mph - N/A   Mostly Cloudy
6:46 PM 59.0 °F - 39.2 °F 48% 30.16 in 10.0 mi SSW 5.8 mph - N/A   Mostly Cloudy
7:45 PM 59.0 °F - 41.0 °F 51% 30.17 in 10.0 mi WNW 6.9 mph - N/A   Mostly Cloudy
8:45 PM 57.2 °F - 41.0 °F 55% 30.18 in 10.0 mi NNW 6.9 mph - N/A   Mostly Cloudy
10:50 PM 53.6 °F - 44.6 °F 72% 30.20 in 10.0 mi North 3.5 mph - N/A   Mostly Cloudy
11:45 PM 53.6 °F - 44.6 °F 72% 30.19 in 10.0 mi NE 4.6 mph - N/A   Mostly Cloudy